Time,TemperatureF,DewpointF,PressureIn,WindDirection,WindDirectionDegrees,WindSpeedMPH,WindSpeedGustMPH,Humidity,HourlyPrecipIn,Conditions,Clouds,dailyrainin,SoftwareType,DateUTC
2013-09-13 00:01:00,78.6,78.3,29.78,West,270,0.0,1.0,99,0.00,,,0.00,meteohub,2013-09-13 04:01:00,
2013-09-13 00:02:00,78.6,78.3,29.78,West,270,0.0,1.0,99,0.00,,,0.00,meteohub,2013-09-13 04:02:00,
2013-09-13 00:03:00,78.6,78.3,29.78,West,270,0.0,1.0,99,0.00,,,0.00,meteohub,2013-09-13 04:03:00,
2013-09-13 00:04:00,78.6,78.3,29.78,West,270,0.0,1.0,99,0.00,,,0.00,meteohub,2013-09-13 04:04:00,
2013-09-13 00:06:00,78.6,78.3,29.78,West,270,0.0,1.0,99,0.00,,,0.00,meteohub,2013-09-13 04:06:00,
2013-09-13 00:11:00,78.4,78.1,29.78,West,270,0.0,0.0,99,0.00,,,0.00,meteohub,2013-09-13 04:11:00,
2013-09-13 00:16:00,78.4,78.1,29.78,West,270,0.0,1.0,99,0.00,,,0.00,meteohub,2013-09-13 04:16:00,
2013-09-13 00:21:00,78.4,78.1,29.78,West,270,0.0,1.0,99,0.00,,,0.00,meteohub,2013-09-13 04:21:00,
2013-09-13 00:27:00,78.3,77.9,29.78,West,270,0.0,0.0,99,0.00,,,0.00,meteohub,2013-09-13 04:27:00,
2013-09-13 00:32:00,78.3,77.9,29.78,West,270,0.0,0.0,99,0.00,,,0.00,meteohub,2013-09-13 04:32:00,
2013-09-13 00:37:00,78.3,77.9,29.78,West,270,0.0,0.0,99,0.00,,,0.00,meteohub,2013-09-13 04:37:00,
2013-09-13 00:42:00,78.3,77.9,29.77,West,270,0.0,0.0,99,0.00,,,0.00,meteohub,2013-09-13 04:42:00,
2013-09-13 00:47:00,78.3,77.9,29.77,West,270,0.0,0.0,99,0.00,,,0.00,meteohub,2013-09-13 04:47:00,
2013-09-13 00:52:00,78.3,77.9,29.77,NW,315,0.0,0.0,99,0.00,,,0.00,meteohub,2013-09-13 04:52:00,
2013-09-13 00:57:00,78.3,77.9,29.78,NW,315,0.0,0.0,99,0.00,,,0.00,meteohub,2013-09-13 04:57:00,
2013-09-13 01:02:00,78.1,77.7,29.77,NW,315,0.0,0.0,99,0.00,,,0.00,meteohub,2013-09-13 05:02:00,
2013-09-13 01:07:00,77.9,77.5,29.77,West,270,0.0,0.0,99,0.00,,,0.00,meteohub,2013-09-13 05:07:00,
2013-09-13 01:12:00,77.9,77.5,29.77,West,270,0.0,0.0,99,0.00,,,0.00,meteohub,2013-09-13 05:12:00,
2013-09-13 01:17:00,77.9,77.5,29.76,West,270,0.0,0.0,99,0.00,,,0.00,meteohub,2013-09-13 05:17:00,
2013-09-13 01:22:00,77.9,77.5,29.76,West,270,0.0,0.0,99,0.00,,,0.00,meteohub,2013-09-13 05:22:00,
2013-09-13 01:27:00,77.9,77.5,29.76,NW,315,0.0,0.0,99,0.00,,,0.00,meteohub,2013-09-13 05:27:00,
2013-09-13 01:32:00,77.7,77.4,29.77,NW,315,0.0,0.0,99,0.00,,,0.00,meteohub,2013-09-13 05:32:00,
2013-09-13 01:37:00,77.7,77.4,29.76,West,270,0.0,0.0,99,0.00,,,0.00,meteohub,2013-09-13 05:37:00,
2013-09-13 01:42:00,77.5,77.2,29.76,West,270,1.0,1.0,99,0.00,,,0.00,meteohub,2013-09-13 05:42:00,
2013-09-13 01:47:00,77.5,77.2,29.76,NW,315,1.0,1.0,99,0.00,,,0.00,meteohub,2013-09-13 05:47:00,
2013-09-13 01:52:00,77.5,77.2,29.76,West,270,2.0,2.0,99,0.00,,,0.00,meteohub,2013-09-13 05:52:00,
2013-09-13 01:57:00,77.5,77.2,29.76,SW,225,0.0,2.0,99,0.00,,,0.00,meteohub,2013-09-13 05:57:00,
2013-09-13 02:02:00,77.4,77.0,29.76,West,270,0.0,2.0,99,0.00,,,0.00,meteohub,2013-09-13 06:02:00,
2013-09-13 02:07:00,77.5,77.2,29.75,West,270,1.0,2.0,99,0.00,,,0.00,meteohub,2013-09-13 06:07:00,
2013-09-13 02:12:00,77.5,77.2,29.75,West,270,0.0,2.0,99,0.00,,,0.00,meteohub,2013-09-13 06:12:00,
2013-09-13 02:17:00,77.5,77.2,29.75,West,270,1.0,2.0,99,0.00,,,0.00,meteohub,2013-09-13 06:17:00,
2013-09-13 02:22:00,77.4,77.0,29.75,West,270,0.0,1.0,99,0.00,,,0.00,meteohub,2013-09-13 06:22:00,
2013-09-13 02:27:00,77.2,76.8,29.75,West,270,1.0,1.0,99,0.00,,,0.00,meteohub,2013-09-13 06:27:00,
2013-09-13 02:32:00,77.0,76.6,29.75,West,270,0.0,1.0,99,0.00,,,0.00,meteohub,2013-09-13 06:32:00,
2013-09-13 02:37:00,77.0,76.6,29.75,North,0,1.0,1.0,99,0.00,,,0.00,meteohub,2013-09-13 06:37:00,
2013-09-13 02:42:00,77.0,76.6,29.75,West,270,0.0,1.0,99,0.00,,,0.00,meteohub,2013-09-13 06:42:00,
2013-09-13 02:47:00,77.0,76.6,29.75,West,270,0.0,1.0,99,0.00,,,0.00,meteohub,2013-09-13 06:47:00,
2013-09-13 02:52:00,76.6,76.3,29.75,West,270,0.0,1.0,99,0.00,,,0.00,meteohub,2013-09-13 06:52:00,
2013-09-13 02:57:00,76.6,76.3,29.75,West,270,0.0,1.0,99,0.00,,,0.00,meteohub,2013-09-13 06:57:00,
2013-09-13 03:02:00,76.5,76.1,29.75,West,270,1.0,1.0,99,0.00,,,0.00,meteohub,2013-09-13 07:02:00,
2013-09-13 03:07:00,76.5,76.1,29.76,West,270,0.0,1.0,99,0.00,,,0.00,meteohub,2013-09-13 07:07:00,
2013-09-13 03:12:00,76.5,76.1,29.75,West,270,1.0,1.0,99,0.00,,,0.00,meteohub,2013-09-13 07:12:00,
2013-09-13 03:17:00,76.5,76.1,29.75,West,270,0.0,1.0,99,0.00,,,0.00,meteohub,2013-09-13 07:17:00,
2013-09-13 03:22:00,76.3,75.9,29.75,West,270,0.0,1.0,99,0.00,,,0.00,meteohub,2013-09-13 07:22:00,
2013-09-13 03:27:00,76.1,75.7,29.75,West,270,0.0,1.0,99,0.00,,,0.00,meteohub,2013-09-13 07:27:00,
2013-09-13 03:32:00,76.1,75.7,29.75,West,270,0.0,0.0,99,0.00,,,0.00,meteohub,2013-09-13 07:32:00,
2013-09-13 03:37:00,76.1,75.7,29.75,West,270,0.0,0.0,99,0.00,,,0.00,meteohub,2013-09-13 07:37:00,
2013-09-13 03:42:00,75.9,75.6,29.75,West,270,0.0,0.0,99,0.00,,,0.00,meteohub,2013-09-13 07:42:00,
2013-09-13 03:47:00,75.9,75.6,29.75,West,270,0.0,0.0,99,0.00,,,0.00,meteohub,2013-09-13 07:47:00,
2013-09-13 03:52:00,75.9,75.6,29.75,West,270,0.0,0.0,99,0.00,,,0.00,meteohub,2013-09-13 07:52:00,
2013-09-13 03:57:00,75.7,75.4,29.74,West,270,1.0,0.0,99,0.00,,,0.00,meteohub,2013-09-13 07:57:00,
2013-09-13 04:02:00,75.9,75.6,29.75,North,0,0.0,1.0,99,0.00,,,0.00,meteohub,2013-09-13 08:02:00,
2013-09-13 04:07:00,75.9,75.6,29.74,North,0,1.0,1.0,99,0.00,,,0.00,meteohub,2013-09-13 08:07:00,
2013-09-13 04:12:00,75.9,75.6,29.74,North,0,0.0,1.0,99,0.00,,,0.00,meteohub,2013-09-13 08:12:00,
2013-09-13 04:17:00,75.9,75.6,29.75,NW,315,0.0,2.0,99,0.00,,,0.00,meteohub,2013-09-13 08:17:00,
2013-09-13 04:22:00,75.7,75.4,29.75,North,0,2.0,2.0,99,0.00,,,0.00,meteohub,2013-09-13 08:22:00,
2013-09-13 04:27:00,75.9,75.6,29.74,North,0,1.0,2.0,99,0.00,,,0.00,meteohub,2013-09-13 08:27:00,
2013-09-13 04:32:00,75.9,75.6,29.74,North,0,1.0,2.0,99,0.00,,,0.00,meteohub,2013-09-13 08:32:00,
2013-09-13 04:37:00,75.9,75.6,29.75,North,0,1.0,2.0,99,0.00,,,0.00,meteohub,2013-09-13 08:37:00,
2013-09-13 04:42:00,75.9,75.6,29.74,North,0,0.0,2.0,99,0.00,,,0.00,meteohub,2013-09-13 08:42:00,
2013-09-13 04:47:00,75.7,75.4,29.74,North,0,0.0,2.0,99,0.00,,,0.00,meteohub,2013-09-13 08:47:00,
2013-09-13 04:52:00,75.6,75.2,29.74,North,0,0.0,1.0,99,0.00,,,0.00,meteohub,2013-09-13 08:52:00,
2013-09-13 04:57:00,75.6,75.2,29.75,North,0,1.0,0.0,99,0.00,,,0.00,meteohub,2013-09-13 08:57:00,
2013-09-13 05:02:00,75.6,75.2,29.74,North,0,0.0,1.0,99,0.00,,,0.00,meteohub,2013-09-13 09:02:00,
2013-09-13 05:07:00,75.6,75.2,29.75,NW,315,0.0,1.0,99,0.00,,,0.00,meteohub,2013-09-13 09:07:00,
2013-09-13 05:12:00,75.4,75.0,29.75,West,270,0.0,1.0,99,0.00,,,0.00,meteohub,2013-09-13 09:12:00,
2013-09-13 05:17:00,75.6,75.2,29.75,West,270,0.0,1.0,99,0.00,,,0.00,meteohub,2013-09-13 09:17:00,
2013-09-13 05:22:00,75.4,75.0,29.74,West,270,0.0,1.0,99,0.00,,,0.00,meteohub,2013-09-13 09:22:00,
2013-09-13 05:27:00,75.2,74.8,29.74,West,270,0.0,0.0,99,0.00,,,0.00,meteohub,2013-09-13 09:27:00,
2013-09-13 05:32:00,75.2,74.8,29.73,West,270,0.0,0.0,99,0.00,,,0.00,meteohub,2013-09-13 09:32:00,
2013-09-13 05:37:00,75.2,74.8,29.74,West,270,0.0,0.0,99,0.00,,,0.00,meteohub,2013-09-13 09:37:00,
2013-09-13 05:42:00,75.2,74.8,29.74,West,270,0.0,0.0,99,0.00,,,0.00,meteohub,2013-09-13 09:42:00,
2013-09-13 05:47:00,75.0,74.7,29.73,West,270,0.0,0.0,99,0.00,,,0.00,meteohub,2013-09-13 09:47:00,
2013-09-13 05:52:00,75.0,74.7,29.74,SW,225,0.0,0.0,99,0.00,,,0.00,meteohub,2013-09-13 09:52:00,
2013-09-13 05:57:00,75.0,74.7,29.74,SW,225,0.0,0.0,99,0.00,,,0.00,meteohub,2013-09-13 09:57:00,
2013-09-13 06:02:00,74.7,74.3,29.74,SW,225,0.0,0.0,99,0.00,,,0.00,meteohub,2013-09-13 10:02:00,
2013-09-13 06:07:00,74.8,74.5,29.74,SW,225,0.0,0.0,99,0.00,,,0.00,meteohub,2013-09-13 10:07:00,
2013-09-13 06:12:00,75.2,74.8,29.74,SW,225,0.0,0.0,99,0.00,,,0.00,meteohub,2013-09-13 10:12:00,
2013-09-13 06:17:00,75.2,74.8,29.74,SW,225,0.0,0.0,99,0.00,,,0.00,meteohub,2013-09-13 10:17:00,
2013-09-13 06:22:00,75.0,74.7,29.75,SW,225,0.0,0.0,99,0.00,,,0.00,meteohub,2013-09-13 10:22:00,
2013-09-13 06:27:00,74.8,74.5,29.75,SW,225,0.0,0.0,99,0.00,,,0.00,meteohub,2013-09-13 10:27:00,
2013-09-13 06:32:00,74.8,74.5,29.75,SW,225,0.0,0.0,99,0.00,,,0.00,meteohub,2013-09-13 10:32:00,
2013-09-13 06:37:00,75.0,74.7,29.75,SW,225,0.0,0.0,99,0.00,,,0.00,meteohub,2013-09-13 10:37:00,
2013-09-13 06:42:00,75.0,74.7,29.75,SW,225,0.0,0.0,99,0.00,,,0.00,meteohub,2013-09-13 10:42:00,
2013-09-13 06:47:00,74.8,74.5,29.76,SW,225,0.0,0.0,99,0.00,,,0.00,meteohub,2013-09-13 10:47:00,
2013-09-13 06:52:00,74.8,74.5,29.75,SW,225,0.0,0.0,99,0.00,,,0.00,meteohub,2013-09-13 10:52:00,
2013-09-13 06:57:00,74.7,74.3,29.75,SW,225,0.0,0.0,99,0.00,,,0.00,meteohub,2013-09-13 10:57:00,
2013-09-13 07:02:00,74.7,74.3,29.76,SW,225,0.0,0.0,99,0.00,,,0.00,meteohub,2013-09-13 11:02:00,
2013-09-13 07:07:00,74.7,74.3,29.76,SW,225,0.0,0.0,99,0.00,,,0.00,meteohub,2013-09-13 11:07:00,
2013-09-13 07:12:00,74.8,74.5,29.76,SW,225,0.0,0.0,99,0.00,,,0.00,meteohub,2013-09-13 11:12:00,
2013-09-13 07:17:00,74.8,74.5,29.76,SW,225,0.0,0.0,99,0.00,,,0.00,meteohub,2013-09-13 11:17:00,
2013-09-13 07:22:00,74.8,74.5,29.77,SW,225,0.0,0.0,99,0.00,,,0.00,meteohub,2013-09-13 11:22:00,
2013-09-13 07:27:00,75.0,74.7,29.77,SW,225,0.0,1.0,99,0.00,,,0.00,meteohub,2013-09-13 11:27:00,
2013-09-13 07:32:00,75.4,75.0,29.76,SW,225,0.0,1.0,99,0.00,,,0.00,meteohub,2013-09-13 11:32:00,
2013-09-13 07:37:00,76.1,75.7,29.76,SW,225,0.0,1.0,99,0.00,,,0.00,meteohub,2013-09-13 11:37:00,
2013-09-13 07:42:00,76.6,76.3,29.77,SW,225,0.0,0.0,99,0.00,,,0.00,meteohub,2013-09-13 11:42:00,
2013-09-13 07:47:00,77.5,77.2,29.77,SW,225,0.0,0.0,99,0.00,,,0.00,meteohub,2013-09-13 11:47:00,
2013-09-13 07:52:00,78.6,78.3,29.77,SW,225,0.0,0.0,99,0.00,,,0.00,meteohub,2013-09-13 11:52:00,
2013-09-13 07:57:00,79.3,79.0,29.77,SW,225,0.0,0.0,99,0.00,,,0.00,meteohub,2013-09-13 11:57:00,
2013-09-13 08:02:00,80.6,80.2,29.77,SW,225,0.0,0.0,99,0.00,,,0.00,meteohub,2013-09-13 12:02:00,
2013-09-13 08:07:00,81.1,80.8,29.77,SW,225,0.0,0.0,99,0.00,,,0.00,meteohub,2013-09-13 12:07:00,
2013-09-13 08:12:00,82.2,81.9,29.77,SW,225,0.0,0.0,99,0.00,,,0.00,meteohub,2013-09-13 12:12:00,
2013-09-13 08:17:00,83.8,83.5,29.77,SW,225,0.0,0.0,99,0.00,,,0.00,meteohub,2013-09-13 12:17:00,
2013-09-13 08:22:00,85.8,85.5,29.77,SW,225,0.0,0.0,99,0.00,,,0.00,meteohub,2013-09-13 12:22:00,
2013-09-13 08:27:00,86.5,86.2,29.77,North,0,1.0,0.0,99,0.00,,,0.00,meteohub,2013-09-13 12:27:00,
2013-09-13 08:32:00,87.3,86.9,29.77,SW,225,0.0,1.0,99,0.00,,,0.00,meteohub,2013-09-13 12:32:00,
2013-09-13 08:37:00,88.2,87.8,29.78,SW,225,0.0,1.0,99,0.00,,,0.00,meteohub,2013-09-13 12:37:00,
2013-09-13 08:42:00,88.3,85.5,29.77,North,0,1.0,1.0,91,0.00,,,0.00,meteohub,2013-09-13 12:42:00,
2013-09-13 08:47:00,88.2,82.8,29.77,North,0,1.0,1.0,84,0.00,,,0.00,meteohub,2013-09-13 12:47:00,
2013-09-13 08:52:00,88.0,82.2,29.77,NW,315,1.0,2.0,83,0.00,,,0.00,meteohub,2013-09-13 12:52:00,
2013-09-13 08:57:00,89.8,84.2,29.77,West,270,0.0,2.0,84,0.00,,,0.00,meteohub,2013-09-13 12:57:00,
2013-09-13 09:02:00,90.5,82.2,29.77,West,270,1.0,2.0,77,0.00,,,0.00,meteohub,2013-09-13 13:02:00,
2013-09-13 09:07:00,91.2,83.3,29.77,SE,135,1.0,2.0,78,0.00,,,0.00,meteohub,2013-09-13 13:07:00,
2013-09-13 09:12:00,92.5,83.8,29.78,South,180,0.0,2.0,76,0.00,,,0.00,meteohub,2013-09-13 13:12:00,
2013-09-13 09:17:00,93.2,83.3,29.77,South,180,0.0,2.0,73,0.00,,,0.00,meteohub,2013-09-13 13:17:00,
2013-09-13 09:22:00,91.9,81.1,29.77,SW,225,2.0,2.0,71,0.00,,,0.00,meteohub,2013-09-13 13:22:00,
2013-09-13 09:27:00,90.7,80.4,29.77,West,270,2.0,2.0,72,0.00,,,0.00,meteohub,2013-09-13 13:27:00,
2013-09-13 09:32:00,90.1,80.2,29.77,NW,315,1.0,3.0,73,0.00,,,0.00,meteohub,2013-09-13 13:32:00,
2013-09-13 09:37:00,90.7,79.2,29.77,SW,225,1.0,3.0,69,0.00,,,0.00,meteohub,2013-09-13 13:37:00,
2013-09-13 09:42:00,90.7,79.5,29.77,South,180,2.0,3.0,70,0.00,,,0.00,meteohub,2013-09-13 13:42:00,
2013-09-13 09:47:00,91.0,79.5,29.77,South,180,1.0,2.0,69,0.00,,,0.00,meteohub,2013-09-13 13:47:00,
2013-09-13 09:52:00,92.1,78.3,29.78,South,180,1.0,2.0,64,0.00,,,0.00,meteohub,2013-09-13 13:52:00,
2013-09-13 09:57:00,92.3,78.3,29.78,South,180,2.0,2.0,64,0.00,,,0.00,meteohub,2013-09-13 13:57:00,
2013-09-13 10:02:00,92.1,77.7,29.78,South,180,2.0,2.0,63,0.00,,,0.00,meteohub,2013-09-13 14:02:00,
2013-09-13 10:07:00,91.9,78.1,29.77,SW,225,1.0,2.0,64,0.00,,,0.00,meteohub,2013-09-13 14:07:00,
2013-09-13 10:12:00,91.9,76.6,29.78,South,180,2.0,2.0,61,0.00,,,0.00,meteohub,2013-09-13 14:12:00,
2013-09-13 10:17:00,91.8,75.9,29.77,West,270,1.0,3.0,60,0.00,,,0.00,meteohub,2013-09-13 14:17:00,
2013-09-13 10:22:00,91.2,75.9,29.78,NW,315,1.0,3.0,61,0.00,,,0.00,meteohub,2013-09-13 14:22:00,
2013-09-13 10:27:00,91.0,76.3,29.78,SW,225,2.0,3.0,62,0.00,,,0.00,meteohub,2013-09-13 14:27:00,
2013-09-13 10:32:00,91.6,77.2,29.77,NE,45,1.0,4.0,63,0.00,,,0.00,meteohub,2013-09-13 14:32:00,
2013-09-13 10:37:00,92.5,75.6,29.78,NW,315,3.0,4.0,58,0.00,,,0.00,meteohub,2013-09-13 14:37:00,
2013-09-13 10:42:00,92.5,76.6,29.78,West,270,2.0,3.0,60,0.00,,,0.00,meteohub,2013-09-13 14:42:00,
2013-09-13 10:47:00,93.7,77.2,29.78,NW,315,0.0,3.0,59,0.00,,,0.00,meteohub,2013-09-13 14:47:00,
2013-09-13 10:52:00,93.6,75.6,29.78,SW,225,1.0,3.0,56,0.00,,,0.00,meteohub,2013-09-13 14:52:00,
2013-09-13 10:57:00,93.6,76.1,29.78,South,180,1.0,2.0,57,0.00,,,0.00,meteohub,2013-09-13 14:57:00,
2013-09-13 11:02:00,93.2,76.3,29.78,SW,225,3.0,3.0,58,0.00,,,0.00,meteohub,2013-09-13 15:02:00,
2013-09-13 11:07:00,92.1,76.3,29.78,South,180,3.0,4.0,60,0.00,,,0.00,meteohub,2013-09-13 15:07:00,
2013-09-13 11:12:00,91.4,75.0,29.78,East,90,3.0,4.0,59,0.00,,,0.00,meteohub,2013-09-13 15:12:00,
2013-09-13 11:17:00,92.1,76.3,29.78,SE,135,1.0,4.0,60,0.00,,,0.00,meteohub,2013-09-13 15:17:00,
2013-09-13 11:22:00,94.3,76.1,29.78,South,180,1.0,4.0,56,0.00,,,0.00,meteohub,2013-09-13 15:22:00,
2013-09-13 11:27:00,94.8,76.6,29.78,East,90,2.0,3.0,56,0.00,,,0.00,meteohub,2013-09-13 15:27:00,
2013-09-13 11:32:00,93.9,73.6,29.78,SW,225,4.0,4.0,52,0.00,,,0.00,meteohub,2013-09-13 15:32:00,
2013-09-13 11:37:00,93.0,74.5,29.78,NE,45,2.0,4.0,55,0.00,,,0.00,meteohub,2013-09-13 15:37:00,
2013-09-13 11:42:00,93.6,73.2,29.77,West,270,2.0,4.0,52,0.00,,,0.00,meteohub,2013-09-13 15:42:00,
2013-09-13 11:47:00,93.4,73.8,29.77,SW,225,4.0,4.0,53,0.00,,,0.00,meteohub,2013-09-13 15:47:00,
2013-09-13 11:52:00,93.2,75.2,29.77,East,90,3.0,5.0,56,0.00,,,0.00,meteohub,2013-09-13 15:52:00,
2013-09-13 11:57:00,92.3,73.8,29.77,North,0,1.0,5.0,55,0.00,,,0.00,meteohub,2013-09-13 15:57:00,
2013-09-13 12:02:00,93.9,74.1,29.77,North,0,1.0,4.0,53,0.00,,,0.00,meteohub,2013-09-13 16:02:00,
2013-09-13 12:07:00,95.2,73.0,29.77,NE,45,3.0,4.0,49,0.00,,,0.00,meteohub,2013-09-13 16:07:00,
2013-09-13 12:12:00,96.1,75.6,29.77,West,270,2.0,4.0,52,0.00,,,0.00,meteohub,2013-09-13 16:12:00,
2013-09-13 12:17:00,95.7,73.6,29.76,NW,315,2.0,4.0,49,0.00,,,0.00,meteohub,2013-09-13 16:17:00,
2013-09-13 12:22:00,96.6,74.8,29.76,NW,315,2.0,4.0,50,0.00,,,0.00,meteohub,2013-09-13 16:22:00,
2013-09-13 12:27:00,95.4,73.8,29.76,North,0,0.0,4.0,50,0.00,,,0.00,meteohub,2013-09-13 16:27:00,
2013-09-13 12:32:00,95.4,73.8,29.76,NW,315,3.0,4.0,50,0.00,,,0.00,meteohub,2013-09-13 16:32:00,
2013-09-13 12:37:00,95.9,73.0,29.76,NW,315,2.0,4.0,48,0.00,,,0.00,meteohub,2013-09-13 16:37:00,
2013-09-13 12:42:00,96.8,73.2,29.76,North,0,1.0,3.0,47,0.00,,,0.00,meteohub,2013-09-13 16:42:00,
2013-09-13 12:47:00,98.2,71.2,29.76,NW,315,4.0,4.0,42,0.00,,,0.00,meteohub,2013-09-13 16:47:00,
2013-09-13 12:52:00,97.5,71.2,29.75,North,0,1.0,4.0,43,0.00,,,0.00,meteohub,2013-09-13 16:52:00,
2013-09-13 12:57:00,97.3,71.8,29.75,West,270,3.0,4.0,44,0.00,,,0.00,meteohub,2013-09-13 16:57:00,
2013-09-13 13:02:00,95.4,73.2,29.75,SW,225,1.0,4.0,49,0.00,,,0.00,meteohub,2013-09-13 17:02:00,
2013-09-13 13:07:00,95.2,73.0,29.75,West,270,1.0,4.0,49,0.00,,,0.00,meteohub,2013-09-13 17:07:00,
2013-09-13 13:12:00,96.4,72.3,29.75,NW,315,4.0,4.0,46,0.00,,,0.00,meteohub,2013-09-13 17:12:00,
2013-09-13 13:17:00,97.5,73.9,29.74,South,180,1.0,4.0,47,0.00,,,0.00,meteohub,2013-09-13 17:17:00,
2013-09-13 13:22:00,98.1,73.8,29.74,NW,315,0.0,4.0,46,0.00,,,0.00,meteohub,2013-09-13 17:22:00,
2013-09-13 13:27:00,97.7,73.4,29.74,SW,225,2.0,4.0,46,0.00,,,0.00,meteohub,2013-09-13 17:27:00,
2013-09-13 13:32:00,95.9,73.0,29.74,North,0,2.0,3.0,48,0.00,,,0.00,meteohub,2013-09-13 17:32:00,
2013-09-13 13:37:00,94.8,73.2,29.73,ENE,68,1.0,3.0,50,0.00,,,0.00,meteohub,2013-09-13 17:37:00,
2013-09-13 13:42:00,94.3,73.9,29.73,East,90,0.0,3.0,52,0.00,,,0.00,meteohub,2013-09-13 17:42:00,
2013-09-13 13:47:00,94.1,74.3,29.73,East,90,2.0,2.0,53,0.00,,,0.00,meteohub,2013-09-13 17:47:00,
2013-09-13 13:52:00,92.7,74.7,29.73,North,0,2.0,3.0,56,0.00,,,0.00,meteohub,2013-09-13 17:52:00,
2013-09-13 13:57:00,91.6,74.7,29.73,East,90,8.0,8.0,58,0.00,,,0.00,meteohub,2013-09-13 17:57:00,
2013-09-13 14:02:00,89.6,74.8,29.73,East,90,4.0,8.0,62,0.00,,,0.00,meteohub,2013-09-13 18:02:00,
2013-09-13 14:07:00,89.1,74.8,29.73,NE,45,8.0,8.0,63,0.00,,,0.00,meteohub,2013-09-13 18:07:00,
2013-09-13 14:12:00,89.1,75.2,29.72,East,90,4.0,11.0,64,0.00,,,0.00,meteohub,2013-09-13 18:12:00,
2013-09-13 14:17:00,90.1,74.8,29.72,East,90,7.0,11.0,61,0.00,,,0.00,meteohub,2013-09-13 18:17:00,
2013-09-13 14:22:00,90.9,75.6,29.72,East,90,7.0,11.0,61,0.00,,,0.00,meteohub,2013-09-13 18:22:00,
2013-09-13 14:27:00,89.8,75.0,29.72,ESE,113,6.0,10.0,62,0.00,,,0.00,meteohub,2013-09-13 18:27:00,
2013-09-13 14:32:00,89.2,75.0,29.72,SE,135,7.0,10.0,63,0.00,,,0.00,meteohub,2013-09-13 18:32:00,
2013-09-13 14:37:00,90.1,75.9,29.72,East,90,3.0,10.0,63,0.00,,,0.00,meteohub,2013-09-13 18:37:00,
2013-09-13 14:42:00,90.5,74.7,29.71,East,90,7.0,7.0,60,0.00,,,0.00,meteohub,2013-09-13 18:42:00,
2013-09-13 14:47:00,91.4,76.5,29.71,SE,135,2.0,12.0,62,0.00,,,0.00,meteohub,2013-09-13 18:47:00,
2013-09-13 14:52:00,92.3,75.4,29.72,SE,135,5.0,12.0,58,0.00,,,0.00,meteohub,2013-09-13 18:52:00,
2013-09-13 14:57:00,91.2,74.8,29.71,East,90,2.0,12.0,59,0.00,,,0.00,meteohub,2013-09-13 18:57:00,
2013-09-13 15:02:00,91.0,74.7,29.71,East,90,8.0,8.0,59,0.00,,,0.00,meteohub,2013-09-13 19:02:00,
2013-09-13 15:07:00,90.9,75.6,29.71,SE,135,4.0,9.0,61,0.00,,,0.00,meteohub,2013-09-13 19:07:00,
2013-09-13 15:12:00,91.8,75.9,29.71,East,90,5.0,9.0,60,0.00,,,0.00,meteohub,2013-09-13 19:12:00,
2013-09-13 15:17:00,91.2,74.8,29.71,SE,135,4.0,9.0,59,0.00,,,0.00,meteohub,2013-09-13 19:17:00,
2013-09-13 15:22:00,92.1,75.2,29.70,East,90,11.0,11.0,58,0.00,,,0.00,meteohub,2013-09-13 19:22:00,
2013-09-13 15:27:00,91.4,75.6,29.70,South,180,4.0,11.0,60,0.00,,,0.00,meteohub,2013-09-13 19:27:00,
2013-09-13 15:32:00,91.9,75.6,29.70,East,90,7.0,11.0,59,0.00,,,0.00,meteohub,2013-09-13 19:32:00,
2013-09-13 15:37:00,90.7,75.4,29.70,South,180,4.0,11.0,61,0.00,,,0.00,meteohub,2013-09-13 19:37:00,
2013-09-13 15:42:00,90.9,75.6,29.70,NE,45,4.0,8.0,61,0.00,,,0.00,meteohub,2013-09-13 19:42:00,
2013-09-13 15:47:00,90.9,75.0,29.70,East,90,4.0,8.0,60,0.00,,,0.00,meteohub,2013-09-13 19:47:00,
2013-09-13 15:52:00,91.0,75.2,29.70,East,90,6.0,10.0,60,0.00,,,0.00,meteohub,2013-09-13 19:52:00,
2013-09-13 15:57:00,91.4,75.0,29.70,East,90,11.0,11.0,59,0.00,,,0.00,meteohub,2013-09-13 19:57:00,
2013-09-13 16:02:00,91.9,75.6,29.69,East,90,6.0,11.0,59,0.00,,,0.00,meteohub,2013-09-13 20:02:00,
2013-09-13 16:07:00,91.9,76.1,29.69,SE,135,5.0,11.0,60,0.00,,,0.00,meteohub,2013-09-13 20:07:00,
2013-09-13 16:12:00,92.8,75.9,29.69,East,90,6.0,11.0,58,0.00,,,0.00,meteohub,2013-09-13 20:12:00,
2013-09-13 16:17:00,92.1,75.2,29.69,South,180,7.0,10.0,58,0.00,,,0.00,meteohub,2013-09-13 20:17:00,
2013-09-13 16:22:00,91.4,75.0,29.68,SE,135,8.0,10.0,59,0.00,,,0.00,meteohub,2013-09-13 20:22:00,
2013-09-13 16:27:00,91.2,75.9,29.69,East,90,6.0,10.0,61,0.00,,,0.00,meteohub,2013-09-13 20:27:00,
2013-09-13 16:32:00,90.7,74.8,29.69,East,90,10.0,10.0,60,0.00,,,0.00,meteohub,2013-09-13 20:32:00,
2013-09-13 16:37:00,89.2,75.9,29.69,ESE,113,7.0,10.0,65,0.00,,,0.00,meteohub,2013-09-13 20:37:00,
2013-09-13 16:42:00,89.8,75.6,29.69,East,90,7.0,10.0,63,0.00,,,0.00,meteohub,2013-09-13 20:42:00,
2013-09-13 16:47:00,89.4,74.7,29.69,NE,45,8.0,11.0,62,0.00,,,0.00,meteohub,2013-09-13 20:47:00,
2013-09-13 16:52:00,89.8,74.5,29.69,East,90,8.0,11.0,61,0.00,,,0.00,meteohub,2013-09-13 20:52:00,
2013-09-13 16:57:00,90.0,74.1,29.69,East,90,8.0,11.0,60,0.00,,,0.00,meteohub,2013-09-13 20:57:00,
2013-09-13 17:02:00,90.1,74.3,29.68,NE,45,5.0,10.0,60,0.00,,,0.00,meteohub,2013-09-13 21:02:00,
2013-09-13 17:07:00,90.1,73.4,29.69,East,90,8.0,10.0,58,0.00,,,0.00,meteohub,2013-09-13 21:07:00,
2013-09-13 17:12:00,90.1,73.4,29.69,East,90,8.0,11.0,58,0.00,,,0.00,meteohub,2013-09-13 21:12:00,
2013-09-13 17:17:00,90.0,73.2,29.68,NE,45,6.0,11.0,58,0.00,,,0.00,meteohub,2013-09-13 21:17:00,
2013-09-13 17:22:00,90.1,73.4,29.68,East,90,8.0,11.0,58,0.00,,,0.00,meteohub,2013-09-13 21:22:00,
2013-09-13 17:27:00,90.1,72.3,29.68,East,90,8.0,11.0,56,0.00,,,0.00,meteohub,2013-09-13 21:27:00,
2013-09-13 17:32:00,90.7,73.4,29.68,East,90,8.0,11.0,57,0.00,,,0.00,meteohub,2013-09-13 21:32:00,
2013-09-13 17:37:00,90.5,73.2,29.69,East,90,4.0,11.0,57,0.00,,,0.00,meteohub,2013-09-13 21:37:00,
2013-09-13 17:42:00,90.3,73.0,29.69,East,90,7.0,10.0,57,0.00,,,0.00,meteohub,2013-09-13 21:42:00,
2013-09-13 17:47:00,90.1,73.4,29.69,East,90,4.0,10.0,58,0.00,,,0.00,meteohub,2013-09-13 21:47:00,
2013-09-13 17:52:00,90.1,72.3,29.69,East,90,9.0,10.0,56,0.00,,,0.00,meteohub,2013-09-13 21:52:00,
2013-09-13 17:57:00,89.6,72.3,29.69,East,90,9.0,9.0,57,0.00,,,0.00,meteohub,2013-09-13 21:57:00,
2013-09-13 18:02:00,89.4,73.2,29.69,SE,135,8.0,9.0,59,0.00,,,0.00,meteohub,2013-09-13 22:02:00,
2013-09-13 18:07:00,89.2,73.0,29.69,East,90,5.0,9.0,59,0.00,,,0.00,meteohub,2013-09-13 22:07:00,
2013-09-13 18:12:00,89.1,73.4,29.69,East,90,5.0,9.0,60,0.00,,,0.00,meteohub,2013-09-13 22:12:00,
2013-09-13 18:17:00,88.5,72.9,29.69,East,90,9.0,9.0,60,0.00,,,0.00,meteohub,2013-09-13 22:17:00,
2013-09-13 18:22:00,87.4,73.8,29.69,East,90,5.0,11.0,64,0.00,,,0.00,meteohub,2013-09-13 22:22:00,
2013-09-13 18:27:00,86.7,73.9,29.70,East,90,6.0,11.0,66,0.00,,,0.00,meteohub,2013-09-13 22:27:00,
2013-09-13 18:32:00,86.7,73.6,29.69,NE,45,6.0,11.0,65,0.00,,,0.00,meteohub,2013-09-13 22:32:00,
2013-09-13 18:37:00,86.5,73.8,29.69,South,180,5.0,8.0,66,0.00,,,0.00,meteohub,2013-09-13 22:37:00,
2013-09-13 18:42:00,86.2,74.3,29.70,East,90,7.0,8.0,68,0.00,,,0.00,meteohub,2013-09-13 22:42:00,
2013-09-13 18:47:00,86.0,74.1,29.70,East,90,6.0,8.0,68,0.00,,,0.00,meteohub,2013-09-13 22:47:00,
2013-09-13 18:52:00,86.0,74.1,29.70,East,90,5.0,8.0,68,0.00,,,0.00,meteohub,2013-09-13 22:52:00,
2013-09-13 18:57:00,85.6,74.3,29.70,East,90,8.0,8.0,69,0.00,,,0.00,meteohub,2013-09-13 22:57:00,
2013-09-13 19:02:00,85.3,74.3,29.70,East,90,8.0,9.0,70,0.00,,,0.00,meteohub,2013-09-13 23:02:00,
2013-09-13 19:07:00,85.1,73.8,29.70,SE,135,2.0,9.0,69,0.00,,,0.00,meteohub,2013-09-13 23:07:00,
2013-09-13 19:12:00,84.9,73.6,29.70,SE,135,5.0,9.0,69,0.00,,,0.00,meteohub,2013-09-13 23:12:00,
2013-09-13 19:17:00,84.7,73.9,29.70,SE,135,5.0,8.0,70,0.00,,,0.00,meteohub,2013-09-13 23:17:00,
2013-09-13 19:22:00,84.7,74.3,29.70,East,90,5.0,7.0,71,0.00,,,0.00,meteohub,2013-09-13 23:22:00,
2013-09-13 19:27:00,84.6,74.1,29.70,NE,45,9.0,9.0,71,0.00,,,0.00,meteohub,2013-09-13 23:27:00,
2013-09-13 19:32:00,84.4,74.3,29.70,East,90,3.0,9.0,72,0.00,,,0.00,meteohub,2013-09-13 23:32:00,
2013-09-13 19:37:00,84.4,74.8,29.71,East,90,5.0,9.0,73,0.00,,,0.00,meteohub,2013-09-13 23:37:00,
2013-09-13 19:42:00,84.2,74.1,29.70,East,90,4.0,9.0,72,0.00,,,0.00,meteohub,2013-09-13 23:42:00,
2013-09-13 19:47:00,84.2,74.1,29.70,SE,135,4.0,8.0,72,0.00,,,0.00,meteohub,2013-09-13 23:47:00,
2013-09-13 19:52:00,84.0,74.5,29.71,East,90,4.0,8.0,73,0.00,,,0.00,meteohub,2013-09-13 23:52:00,
2013-09-13 19:57:00,84.0,74.5,29.71,East,90,7.0,7.0,73,0.00,,,0.00,meteohub,2013-09-13 23:57:00,
2013-09-13 20:02:00,84.0,74.8,29.70,East,90,3.0,7.0,74,0.00,,,0.00,meteohub,2013-09-14 00:02:00,
2013-09-13 20:07:00,84.0,74.8,29.71,East,90,3.0,7.0,74,0.00,,,0.00,meteohub,2013-09-14 00:07:00,
2013-09-13 20:12:00,83.8,75.4,29.72,East,90,4.0,7.0,76,0.00,,,0.00,meteohub,2013-09-14 00:12:00,
2013-09-13 20:17:00,83.8,75.4,29.71,South,180,3.0,6.0,76,0.00,,,0.00,meteohub,2013-09-14 00:17:00,
2013-09-13 20:22:00,83.5,75.6,29.72,East,90,2.0,6.0,77,0.00,,,0.00,meteohub,2013-09-14 00:22:00,
2013-09-13 20:27:00,83.5,75.6,29.71,East,90,2.0,5.0,77,0.00,,,0.00,meteohub,2013-09-14 00:27:00,
2013-09-13 20:32:00,83.5,75.0,29.71,East,90,2.0,4.0,76,0.00,,,0.00,meteohub,2013-09-14 00:32:00,
2013-09-13 20:37:00,83.5,75.0,29.72,East,90,3.0,4.0,76,0.00,,,0.00,meteohub,2013-09-14 00:37:00,
2013-09-13 20:42:00,83.5,75.0,29.72,East,90,3.0,6.0,76,0.00,,,0.00,meteohub,2013-09-14 00:42:00,
2013-09-13 20:47:00,83.5,75.0,29.72,East,90,3.0,6.0,76,0.00,,,0.00,meteohub,2013-09-14 00:47:00,
2013-09-13 20:52:00,83.5,75.0,29.73,East,90,5.0,7.0,76,0.00,,,0.00,meteohub,2013-09-14 00:52:00,
2013-09-13 20:57:00,83.5,74.7,29.73,East,90,5.0,8.0,75,0.00,,,0.00,meteohub,2013-09-14 00:57:00,
2013-09-13 21:02:00,83.5,74.7,29.73,East,90,2.0,8.0,75,0.00,,,0.00,meteohub,2013-09-14 01:02:00,
2013-09-13 21:07:00,83.3,74.1,29.73,East,90,2.0,8.0,74,0.00,,,0.00,meteohub,2013-09-14 01:07:00,
2013-09-13 21:12:00,83.3,74.5,29.73,East,90,3.0,5.0,75,0.00,,,0.00,meteohub,2013-09-14 01:12:00,
2013-09-13 21:17:00,83.3,74.5,29.73,East,90,4.0,4.0,75,0.00,,,0.00,meteohub,2013-09-14 01:17:00,
2013-09-13 21:22:00,83.3,74.5,29.73,East,90,2.0,5.0,75,0.00,,,0.00,meteohub,2013-09-14 01:22:00,
2013-09-13 21:27:00,83.3,75.0,29.73,East,90,3.0,5.0,76,0.00,,,0.00,meteohub,2013-09-14 01:27:00,
2013-09-13 21:32:00,83.1,75.2,29.73,East,90,3.0,6.0,77,0.00,,,0.00,meteohub,2013-09-14 01:32:00,
2013-09-13 21:37:00,83.1,75.2,29.73,East,90,3.0,6.0,77,0.00,,,0.00,meteohub,2013-09-14 01:37:00,
2013-09-13 21:42:00,83.1,75.6,29.74,South,180,2.0,6.0,78,0.00,,,0.00,meteohub,2013-09-14 01:42:00,
2013-09-13 21:47:00,83.1,75.6,29.74,East,90,3.0,4.0,78,0.00,,,0.00,meteohub,2013-09-14 01:47:00,
2013-09-13 21:52:00,82.9,75.7,29.74,East,90,4.0,4.0,79,0.00,,,0.00,meteohub,2013-09-14 01:52:00,
2013-09-13 21:57:00,83.1,75.9,29.74,East,90,3.0,4.0,79,0.00,,,0.00,meteohub,2013-09-14 01:57:00,
2013-09-13 22:02:00,82.9,76.1,29.74,East,90,3.0,4.0,80,0.00,,,0.00,meteohub,2013-09-14 02:02:00,
2013-09-13 22:07:00,82.8,76.3,29.74,East,90,3.0,4.0,81,0.00,,,0.00,meteohub,2013-09-14 02:07:00,
2013-09-13 22:12:00,82.8,76.6,29.74,SE,135,2.0,4.0,82,0.00,,,0.00,meteohub,2013-09-14 02:12:00,
2013-09-13 22:17:00,82.8,77.0,29.75,SE,135,1.0,4.0,83,0.00,,,0.00,meteohub,2013-09-14 02:17:00,
2013-09-13 22:22:00,82.6,76.8,29.75,East,90,2.0,4.0,83,0.00,,,0.00,meteohub,2013-09-14 02:22:00,
2013-09-13 22:27:00,82.6,77.2,29.75,South,180,2.0,4.0,84,0.00,,,0.00,meteohub,2013-09-14 02:27:00,
2013-09-13 22:32:00,82.6,77.2,29.75,South,180,1.0,4.0,84,0.00,,,0.00,meteohub,2013-09-14 02:32:00,
2013-09-13 22:37:00,82.2,77.2,29.75,South,180,1.0,4.0,85,0.00,,,0.00,meteohub,2013-09-14 02:37:00,
2013-09-13 22:42:00,82.2,77.2,29.75,South,180,0.0,2.0,85,0.00,,,0.00,meteohub,2013-09-14 02:42:00,
2013-09-13 22:47:00,82.0,77.4,29.75,South,180,2.0,2.0,86,0.00,,,0.00,meteohub,2013-09-14 02:47:00,
2013-09-13 22:52:00,82.0,77.4,29.75,South,180,1.0,2.0,86,0.00,,,0.00,meteohub,2013-09-14 02:52:00,
2013-09-13 22:57:00,81.9,77.5,29.75,South,180,2.0,2.0,87,0.00,,,0.00,meteohub,2013-09-14 02:57:00,
2013-09-13 23:02:00,81.9,77.9,29.75,South,180,2.0,2.0,88,0.00,,,0.00,meteohub,2013-09-14 03:02:00,
2013-09-13 23:07:00,81.9,77.9,29.75,South,180,1.0,2.0,88,0.00,,,0.00,meteohub,2013-09-14 03:07:00,
2013-09-13 23:12:00,81.7,77.7,29.74,South,180,1.0,2.0,88,0.00,,,0.00,meteohub,2013-09-14 03:12:00,
2013-09-13 23:17:00,81.7,78.1,29.75,South,180,2.0,2.0,89,0.00,,,0.00,meteohub,2013-09-14 03:17:00,
2013-09-13 23:22:00,81.7,78.1,29.75,South,180,1.0,3.0,89,0.00,,,0.00,meteohub,2013-09-14 03:22:00,
2013-09-13 23:27:00,81.7,78.1,29.74,South,180,1.0,3.0,89,0.00,,,0.00,meteohub,2013-09-14 03:27:00,
2013-09-13 23:32:00,81.5,77.9,29.75,South,180,1.0,2.0,89,0.00,,,0.00,meteohub,2013-09-14 03:32:00,
2013-09-13 23:37:00,81.3,77.7,29.74,SW,225,2.0,2.0,89,0.00,,,0.00,meteohub,2013-09-14 03:37:00,
2013-09-13 23:42:00,81.3,78.1,29.75,South,180,1.0,2.0,90,0.00,,,0.00,meteohub,2013-09-14 03:42:00,
2013-09-13 23:47:00,81.1,77.9,29.74,South,180,0.0,2.0,90,0.00,,,0.00,meteohub,2013-09-14 03:47:00,
2013-09-13 23:52:00,81.1,77.9,29.74,South,180,1.0,2.0,90,0.00,,,0.00,meteohub,2013-09-14 03:52:00,
2013-09-13 23:57:00,81.0,77.7,29.75,South,180,1.0,2.0,90,0.00,,,0.00,meteohub,2013-09-14 03:57:00,